Location: Newark
(42.4040°N, 21.7420°E)
Time: 09:56:48
(UTC+00:00)

ISS - Pass Details

Date: 24 December 2019
Orbit: 415 x 421 km, 51.6° (Epoch: 19 January)

Event Time Altitude Azimuth Distance (km) Brightness Sun altitude
Exits shadow 04:27:55 17° 223° (SW) 1,114 -1.9 -16.3°
Maximum altitude 04:30:18 67° 143° (SE) 453 -3.5 -15.9°
Drops below altitude 10° 04:33:37 10° 60° (ENE) 1,490 -0.4 -15.3°
Sets 04:35:43 0° 58° (ENE) 2,356 0.7 -15.0°
